User: anonymous   Login
Location: La Tine
(46.4708°N, 7.0525°E)
Time: 22:50:36
(UTC+00:00)
Language:

Cosmos 1626 - Orbit

View from above orbital plane
View from above orbital plane
View from above satellite
View from above satellite

Ground track
Ground track

The orbit data is extracted from the following two-line orbital elements,

1 15494U 85009A   20332.40585109 +.00002310 +00000-0 +92891-4 0  9996
2 15494 082.4809 067.8082 0001641 005.3024 354.8230 15.24428717960206
Epoch (UTC): 27 November 2020 09:44:25
Eccentricity: 0.0001641
inclination: 82.4809°
perigee height: 491 km
apogee height: 493 km
right ascension of ascending node: 67.8082°
argument of perigee: 5.3024°
revolutions per day: 15.24428717
mean anomaly at epoch: 354.8230°
orbit number at epoch: 96020

The dashed part of the orbit path shows where the satellite is in the earth's shadow,  

DLR